Racecast

Aidan Ortiz

Temperance Bedford (MI) · 12 · SECMI D1MONROE · Compare head to head

Athlete rating 111.7 2025 TF season
Best race 130.6 XC
Races 115
Seasons 8 2018 — 2025

RankedNation #51543·MI #2159·MI D1 #1216·SEC #106·Team #19 ?

Rating scale ?
Speed rating — all races

Cross Country

XC speed rating

2024 XC 114.3

Temperance Bedford (MI) · Grade 12

Date Meet Event Result Place Rating Difficulty PR/SR Flags
2024-09-28 Lake Erie Metro Park OFFICIAL 5000m 18:07.3 32nd · 7th on team 113.6 +0.007 CSR
2024-09-21 Ella Sharp Park OFFICIAL 5000m 17:30.5 150th · 5th on team 117.0 -0.001 SR CSR
2024-09-10 Willow Metropark OFFICIAL 5000m 18:24.6 46th · 4th on team 111.3 -0.003 ★CR CSR
2024-09-07 Hedges Boyer Park 5000m 17:31.9 98th · 5th on team 116.2 -0.003 ★CR SR CSR
2024-08-31 BGSU 5000m 18:25.2 56th · 5th on team 110.5 -0.003 CSR
2024-08-23 Ford Field/EE Ice Arena(LIVONIA) OFFICIAL 5000m 17:43.5 50th · 5th on team 117.1 +0.013 ★CR SR CSR RSR

2023 XC 114.9

Temperance Bedford (MI) · Grade 11

Date Meet Event Result Place Rating Difficulty PR/SR Flags
2023-10-28 Lake Erie Metro Park OFFICIAL 5000m 17:26.7 30th · 4th on team 118.3 +0.007
2023-10-19 Hudson Mills Metropark - OFFICIAL 5000m 18:00.85 6th · 1st on team 113.1 -0.006 CSR
2023-10-14 Munson Park 5000m 18:30.8 17th · 8th on team 112.3 +0.007 ★CR CSR
2023-09-30 Lake Erie Metro Park OFFICIAL 5000m 17:12.2 10th · 2nd on team 120.4 +0.007 ★PR ★CR SR CSR RSR
2023-09-27 Saline High School 5000m 17:25.6 44th · 7th on team 116.7 -0.009 PR ★CR SR CSR
2023-09-23 Ella Sharp Park OFFICIAL 5000m 17:34.7 130th · 3rd on team 117.7 -0.001 SR CSR RSR
2023-09-16 Ottawa Park Golf Course 5000m 17:48.2 55th · 4th on team 115.2 -0.001 ★CR CSR
2023-09-13 Indian Creek OFFICIAL 5000m 17:37.4 44th · 4th on team 116.9 +0.004 ★CR SR CSR RSR
2023-09-09 Hedges Boyer Park 5000m 18:14.3 125th · 4th on team 111.5 -0.003 CSR
2023-09-02 Forest Creason Golf Course 5000m 19:03.8 77th · 8th on team 108.2 -0.002 ★CR CSR
2023-08-18 Ford Field/EE Ice Arena(LIVONIA) OFFICIAL 5000m 18:11.4 8th · 1st on team 113.7 +0.013 CR SR CSR RSR

2022 XC 115.1

Temperance Bedford (MI) · Grade 10

Date Meet Event Result Place Rating Difficulty PR/SR Flags
2022-10-20 Hudson Mills Metropark - OFFICIAL 5000m 17:41 38th · 5th on team 115.3 -0.006 ★CR CSR
2022-10-15 Munson Park 5000m 18:35.1 14th · 7th on team 112.1 +0.007 CR CSR
2022-10-01 Lake Erie Metro Park OFFICIAL 5000m 17:32.7 17th · 1st on team 118.9 +0.007 CR CSR RSR
2022-09-28 Pioneer HS 5000m 18:18.2 43rd · 6th on team 114.1 +0.018 ★CR CSR
2022-09-24 Ella Sharp Park OFFICIAL 5000m 17:25.8 91st · 1st on team 117.1 -0.001 PR ★CR SR CSR RSR
2022-09-14 Ella Sharp Park OFFICIAL 5000m 17:55 45th · 1st on team 116.0 -0.001 PR CR SR CSR RSR
2022-09-10 Hedges Boyer Park 5000m 18:05.9 30th · 2nd on team 114.6 -0.003 CR SR CSR RSR
2022-08-19 Ford Field/EE Ice Arena(LIVONIA) OFFICIAL 5000m 18:42.6 72nd · 3rd on team 112.4 +0.013 CR SR CSR RSR

2021 XC 110.4

Temperance Bedford (MI) · Grade 9

Date Meet Event Result Place Rating Difficulty PR/SR Flags
2021-10-30 Lake Erie Metro Park OFFICIAL 5000m 20:38 32nd · 6th on team 101.7 +0.007
2021-10-21 Hudson Mills Metropark - OFFICIAL 5000m 19:07.8 50th · 5th on team 109.4 -0.006 CR CSR
2021-10-16 Munson Park 5000m 20:40.9 14th · 7th on team 102.2 +0.007
2021-10-02 Lake Erie Metro Park OFFICIAL 5000m 18:47 31st · 7th on team 112.4 +0.007 CR CSR
2021-09-28 Munson Park 5000m 18:52.8 48th · 7th on team 112.2 +0.007 CR CSR
2021-09-24 Ella Sharp Park OFFICIAL 5000m 18:37.7 25th · 2nd on team 113.9 -0.001 CR CSR
2021-09-18 Ottawa Park Golf Course 5000m 18:49 78th · 6th on team 111.4 -0.001 CR CSR
2021-09-11 Hedges Boyer Park 5000m 18:43.5 66th · 6th on team 112.1 -0.003 CR CSR
2021-09-04 BGSU 5000m 17:58.9 39th · 4th on team 116.0 -0.003 PR ★CR SR CSR RSR
2021-08-28 Walsh Park 5000m 18:55 36th · 5th on team 112.8 +0.012 PR ★CR SR CSR RSR

2020 XC 115.4

Temperance Bedford (MI) · Grade 8

Date Meet Event Result Place Rating Difficulty PR/SR Flags
2020-10-14 Indian Creek OFFICIAL 3200m 12:32 12th · 9th on team 119.6 -0.001 SR CSR
2020-09-24 Indian Creek OFFICIAL 3200m 12:35 4th · 4th on team 121.5 -0.001 SR CSR RSR
2020-09-19 Indian Creek OFFICIAL 3218m 12:40 5th · 4th on team 118.7 -0.001 ★CR SR CSR RSR
2020-09-16 Rolling Hills 3218m 13:25.8 8th · 8th on team 117.7 +0.023 ★CR SR CSR RSR
2020-09-09 Indian Creek OFFICIAL 3200m 13:30 11th · 11th on team 110.7 -0.001 SR CSR RSR
2020-08-29 Indian Creek OFFICIAL 3200m 14:35 15th · 15th on team 104.1 -0.001 SR CSR RSR

2019 XC 122.0

Temperance Bedford (MI) · Grade 7

Date Meet Event Result Place Rating Difficulty PR/SR Flags
2019-10-12 Munson Park 3200m 12:44.1 11th · 8th on team 118.3 +0.000 CSR
2019-10-09 Indian Creek OFFICIAL 3200m 11:59 13th · 3rd on team 125.8 -0.001 ★CR CSR
2019-10-05 Munson Park 3218m 12:19.1 9th · 4th on team 121.9 +0.000 ★CR CSR
2019-09-28 Lake Erie Metro Park OFFICIAL 3218m 11:53.3 2nd · 1st on team 126.2 -0.000 ★PR ★CR SR CSR
2019-09-24 Hudson Mills Metropark - OFFICIAL 3000m 11:58.6 8th · 2nd on team 121.0 -0.022 ★PR ★CR SR CSR
2019-09-21 Maumee Bay State Park 3200m 12:19.6 16th · 2nd on team 126.9 +0.037 ★CR CSR
2019-09-14 Ottawa Park Golf Course 3200m 11:52.3 5th · 2nd on team 130.6 +0.027 ★PR ★CR ★R SR CSR RSR
2019-09-07 Hedges Boyer Park 2816m 12:42.9 13th · 6th on team 105.3 ★PR ★CR SR CSR RSR

2018 XC 116.8

Temperance Bedford (MI) · Grade 6

Date Meet Event Result Place Rating Difficulty PR/SR Flags
2018-10-13 Munson Park 3200m 12:31.8 9th · 4th on team 119.3 +0.000 PR ★CR R SR CSR RSR
2018-10-10 Saline High School 3200m 12:37.7 23rd · 6th on team 118.6 -0.021 PR ★CR R SR CSR RSR
2018-10-06 Munson Park 3218m 12:54.3 11th · 4th on team 118.4 +0.000 PR CR R SR CSR RSR
2018-09-29 Lake Erie Metro Park OFFICIAL 3218m 12:57 31st · 6th on team 116.7 -0.000 PR CR SR CSR
2018-09-25 Hudson Mills Metropark - OFFICIAL 3218m 13:22.4 22nd · 5th on team 114.8 +0.020 PR ★CR SR CSR
2018-09-15 Ottawa Park Golf Course 3200m 13:20.6 9th · 9th on team 116.8 +0.027 PR CR R SR CSR RSR
2018-08-30 Eastwood HS 3200m 13:36 16th · 2nd on team 112.8 +0.017 PR ★CR R SR CSR RSR

Track & Field

TF speed rating

2025 TF 111.0

Temperance Bedford (MI) · Grade 12

Date Meet Event Result Place Rating Difficulty PR/SR Flags
2025-05-23 2025 MITCA D1 Team State 1600m 5:02.49 36th · 2nd on team 112.2 -0.031 SR RSR
2025-05-08 SEC-HS Championship (Red) (EQ Approved) 1600m 5:06.46 28th · 3rd on team 111.1 -0.026
2025-05-01 Knight Classic 2025 1600m 5:02.61 2nd · 1st on team 111.6 -0.033 SR
2025-04-29 SEC-HS: Lincoln @ Bedford 1600m 5:06.46 5th · 4th on team 111.7 -0.026 SR RSR
2025-04-22 SEC-HS: Bedford & Pioneer @ Monroe 1600m 5:15.04 14th · 3rd on team 107.9 -0.022 SR
2025-04-15 SEC-HS: Bedford & Dexter @ Skyline 800m 2:18.14 18th · 4th on team 111.5 -0.021 SR RSR

2024 TF 114.0

Temperance Bedford (MI) · Grade 11

Date Meet Event Result Place Rating Difficulty PR/SR Flags
2024-05-24 2024 MITCA D1 Team State 1600m 4:49.52 28th · 2nd on team 116.8 -0.031 ★PR SR
2024-05-17 MHSAA LP Region 05-1 @ Ypsi Lincoln 1600m 4:49.72 13th · 1st on team 117.4 -0.021 PR SR
2024-05-09 SEC-HS: Championship (Red) 3200m 10:38.72 19th · 3rd on team 115.3 -0.022
2024-05-09 SEC-HS: Championship (Red) 1600m 4:49.74 16th · 1st on team 118.1 -0.022 PR SR RSR
2024-05-03 Clay Eagle Invitational 3200m 10:23.3 6th · 1st on team 116.3 -0.033 ★PR SR RSR
2024-04-30 SEC-HS: Bedford @ Lincoln 3200m 10:46.59 1st · 1st on team 114.5 -0.021 SR
2024-04-26 Knight Relays 1600m 5:05.18 10th · 1st on team 110.4 -0.033
2024-04-20 Woodhaven Warrior Classic 3200m 10:48.73 6th · 3rd on team 114.9 -0.017
2024-04-16 SEC-HS: Skyline & Bedford at Dexter 3200m 10:48.3 7th · 3rd on team 113.3 -0.027 SR
2024-04-09 SEC HS: Huron & Saline at Bedford 800m 2:21.38 18th · 5th on team 107.7 -0.026
2024-04-09 SEC HS: Huron & Saline at Bedford 1600m 5:00.94 10th · 3rd on team 112.9 -0.026
2024-02-10 LAB Indoor Meet #8 1600m 4:57.3 14th · 1st on team 113.7 -0.029
2024-01-20 LAB Indoor Meet #5 1600m 4:53.85 27th · 2nd on team 115.0 -0.029 SR RSR
2023-12-29 LAB Holiday Invite 1600m 4:59.15 46th · 2nd on team 113.1 -0.029 SR RSR
2023-12-29 LAB Holiday Invite 800m 2:17.58 40th · 3rd on team 110.4 -0.029 SR

2023 TF 111.9

Temperance Bedford (MI) · Grade 10

Date Meet Event Result Place Rating Difficulty PR/SR Flags
2023-04-22 2023 Warrior TF Classic 800m 2:15.98 12th · 2nd on team 113.1 -0.017
2023-04-22 2023 Warrior TF Classic 3200m 11:17.14 12th · 3rd on team 109.2 -0.017
2023-04-18 SEC-HS: Huron & Bedford @ Saline 3200m 10:59.41 7th · 1st on team 111.4 -0.033
2023-04-18 SEC-HS: Huron & Bedford @ Saline 800m 2:13.21 8th · 2nd on team 114.4 -0.033 ★PR SR
2023-04-13 Springfield Invitational 800m 2:16.33 5th · 2nd on team 111.9 -0.020
2023-04-13 Springfield Invitational 1600m 5:16.73 5th · 2nd on team 107.7 -0.020
2023-04-10 SEC-HS: Pioneer & Dexter @ Bedford 800m 2:14.65 11th · 2nd on team 112.4 -0.026 PR SR
2023-04-10 SEC-HS: Pioneer & Dexter @ Bedford 1600m 4:55.13 7th · 1st on team 114.5 -0.026 SR RSR
2023-04-06 Whitmer Gold W Invitational 3200m 10:42.1 5th · 1st on team 113.5 -0.034 PR SR RSR
2023-03-23 '23 SEC Invite 1600m 5:04.33 16th · 2nd on team 111.2 -0.029 SR RSR

2022 TF 110.5

Temperance Bedford (MI) · Grade 9

Date Meet Event Result Place Rating Difficulty PR/SR Flags
2022-05-26 Dundee Beck FRESHMAN Invitational 3200m 11:35.1 4th · 1st on team 107.3 -0.013
2022-05-26 Dundee Beck FRESHMAN Invitational 1600m 4:52.9 1st · 1st on team 118.0 -0.013 PR SR RSR
2022-05-20 MHSAA LP Region 04-1 @ Saline 1600m 5:03.17 20th · 2nd on team 112.5 -0.033
2022-05-13 SEC-HS: Red Division Championship 1600m 5:01.05 19th · 2nd on team 114.4 -0.021
2022-05-13 SEC-HS: Red Division Championship 3200m 11:53.23 20th · 3rd on team 104.6 -0.021
2022-05-09 Eagle Invite (Clay) 3200m 10:48.28 2nd · 2nd on team 113.8 -0.033 PR SR
2022-05-04 SEC-HS: Skyline at Bedford 1600m 4:57.83 7th · 2nd on team 114.9 -0.026 PR SR RSR
2022-05-04 SEC-HS: Skyline at Bedford 800m 2:24.45 15th · 6th on team 106.4 -0.026 PR SR
2022-04-28 St. Francis Freshman Invite 3200m 11:12.64 1st · 1st on team 108.4 -0.033
2022-04-26 SEC-HS: Bedford & Monroe at Dexter 800m 2:26.13 15th · 4th on team 105.5 -0.027 PR SR
2022-04-26 SEC-HS: Bedford & Monroe at Dexter 1600m 5:07.37 16th · 4th on team 111.8 -0.027
2022-04-23 Warrior Classic 3200m 11:02.8 6th · 2nd on team 112.7 -0.017
2022-04-21 SEC-HS: Saline & Bedford at Huron 3200m 10:56.5 8th · 1st on team 113.3 -0.024 PR SR RSR
2022-04-14 Springfield Invitational 3200m 11:23.51 5th · 2nd on team 109.8 -0.020
2022-04-12 SEC-HS: Lincoln & Pioneer at Bedford 3200m 11:17.24 5th · 1st on team 109.4 -0.024
2022-04-08 Whitmer Gold W Invitational 3200m 11:14.62 6th · 1st on team 108.8 -0.034 PR SR
2022-04-07 Whitmer Freshman Invitational 1600m 5:14.16 2nd · 1st on team 108.0 -0.034
2022-04-05 Bedford @ Whitmer Dual 1600m 5:14.48 2nd · 2nd on team 107.1 -0.034
2022-03-24 '22 SEC Conference Invite 1600m 5:02.33 28th · 2nd on team 112.6 -0.029 PR SR RSR

2021 TF 117.4

Temperance Bedford (MI) · Grade 8

Date Meet Event Result Place Rating Difficulty PR/SR Flags
2021-05-10 Adrian MS @ Bedford MS lj 12'11.00 -0.026
2021-05-10 Adrian MS @ Bedford MS 3200m 12:15.64 1st · 1st on team 118.6 -0.026 PR SR
2021-05-06 Bedford JH @ Monroe MS 1600m 5:53.6 3rd · 2nd on team 114.9 -0.022 PR SR
2021-04-29 Dexter MS @ Bedford MS lj 11'11.00 -0.026
2021-04-29 Dexter MS @ Bedford MS 3200m 12:17.67 3rd · 1st on team 118.6 -0.026 PR SR RSR

2019 TF 106.1

Temperance Bedford (MI) · Grade 6

Date Meet Event Result Place Rating Difficulty PR/SR Flags
2019-05-06 Ypsilanti MS @ Bedford 800m 2:50.79 3rd · 3rd on team 108.1 -0.026 PR SR RSR
2019-05-06 Ypsilanti MS @ Bedford 1600m 6:17.18 3rd · 3rd on team 108.2 -0.026 PR SR RSR
2019-04-22 SEC-MS: Adrian @ Bedford 3200m 14:22.24 4th · 1st on team 101.9 -0.026 PR SR RSR
2019-04-22 SEC-MS: Adrian @ Bedford 400m 1:17.56 5th · 3rd on team -0.026 ★PR SR